This demonstration page uses our WeatherBlox Daily Observations layout. Learn more.

38.89511, -77.03637

Hourly Observations for March 28, 2015

Temp ( °F °C ) Dew Point ( °F °C ) Humidity (%) Winds ( mph kmh ) Pressure ( in mb ) Visibility ( mi km ) Precip ( " mm )
12:52 am 00:52 Mostly Clear 43 6 25 -4 49 49 NNW 21 33 29.85 1011 10 16.09344 0 0
1:52 am 01:52 Partly Cloudy 39 4 23 -5 52 52 NNW 18 30 29.85 1011 10 16.09344 0 0
2:52 am 02:52 Cloudy 39 4 21 -6 48 48 NW 13 20 29.88 1012 10 16.09344 0 0
3:52 am 03:52 Cloudy 37 3 21 -6 52 52 NW 16 26 29.88 1012 10 16.09344 0 0
4:52 am 04:52 Cloudy 37 3 18 -8 45 45 NNW 15 24 29.88 1012 10 16.09344 0 0
5:52 am 05:52 Cloudy 36 2 18 -8 48 48 NW 16 26 29.91 1013 10 16.09344 0 0
6:52 am 06:52 Mostly Cloudy 34 1 16 -9 48 48 WNW 14 22 29.94 1014 10 16.09344 0 0
7:52 am 07:52 Partly Cloudy 32 0 14 -10 47 47 WNW 17 28 30 1016 10 16.09344 0 0
8:52 am 08:52 Mostly Sunny 34 1 10 -12 38 38 WNW 17 28 30 1016 10 16.09344 0 0
9:52 am 09:52 Partly Cloudy 34 1 9 -13 35 35 NW 17 28 30.03 1017 10 16.09344 0 0
10:52 am 10:52 Partly Cloudy 36 2 7 -14 30 30 WNW 18 30 30.03 1017 10 16.09344 0 0
11:52 am 11:52 Partly Cloudy 36 2 10 -12 35 35 NW 20 31 30.03 1017 10 16.09344 0 0
12:52 pm 12:52 Mostly Cloudy 37 3 10 -12 33 33 WNW 15 24 30.03 1017 10 16.09344 0 0
1:09 pm 13:09 Mostly Cloudy 37 3 14 -10 38 38 NNW 16 26 30.03 1017 10 16.09344 0 0
1:52 pm 13:52 Mostly Cloudy 37 3 12 -11 35 35 NW 15 24 30.03 1017 10 16.09344 0 0
2:52 pm 14:52 Cloudy 37 3 12 -11 35 35 NW 16 26 30.03 1017 10 16.09344 0 0
3:52 pm 15:52 Mostly Cloudy 36 2 10 -12 35 35 WNW 14 22 30.06 1018 10 16.09344 0 0
4:17 pm 16:17 Mostly Cloudy 36 2 10 -12 35 35 NW 17 28 30.06 1018 10 16.09344 0 0
4:52 pm 16:52 Mostly Cloudy 37 3 12 -11 35 35 WNW 18 30 30.06 1018 10 16.09344 0 0
5:52 pm 17:52 Mostly Cloudy 36 2 10 -12 35 35 NW 14 22 30.09 1019 10 16.09344 0 0
6:52 pm 18:52 Mostly Cloudy 36 2 10 -12 35 35 NNW 22 35 30.12 1020 10 16.09344 0 0
7:52 pm 19:52 Cloudy 34 1 10 -12 38 38 NW 15 24 30.18 1022 10 16.09344 0 0
8:52 pm 20:52 Partly Cloudy 34 1 9 -13 35 35 NW 15 24 30.21 1023 10 16.09344 0 0
9:52 pm 21:52 Mostly Clear 32 0 7 -14 34 34 NW 13 20 30.24 1024 10 16.09344 0 0
10:52 pm 22:52 Mostly Clear 32 0 7 -14 34 34 NW 13 20 30.24 1024 10 16.09344 0 0
11:52 pm 23:52 Clear 32 0 7 -14 34 34 NW 14 22 30.27 1025 10 16.09344 0 0

Powered by AerisWeather